Regional Weather Roundup
Issued by NWS Sioux Falls, SD

Home | Current Version | Previous Version | Graphics & Text | Print | Product List | Glossary Off
Versions: 1 2 3 4 5 6 7 8 9 10 11 12 13 14 15 16 17 18 19 20 21 22 23 24 25 26 27 28 29 30 31 32 33 34 35 36 37 38 39 40 41 42 43 44 45 46 47 48 49 50

000
ASUS43 KFSD 010210
RWRFSD

WEATHER ROUNDUP FOR SE SOUTH DAKOTA/SW MINNESOTA/NW IOWA
NATIONAL WEATHER SERVICE SIOUX FALLS SD
900 PM CDT THU JUL 31 2014

NOTE: "FAIR" INDICATES FEW OR NO CLOUDS BELOW 12,000 FEET WITH NO
SIGNIFICANT WEATHER AND OR OBSTRUCTIONS TO VISIBILITY.


SDZ038>040-050-052>070-010300-
SOUTHEAST SOUTH DAKOTA

CITY           SKY/WX    TMP DP  RH WIND       PRES   REMARKS
CHAMBERLAIN    CLEAR     74  57  56 CALM      30.03R
HURON          CLEAR     73  56  54 E3        30.02S
MADISON        FAIR      66  64  94 N3        30.06R
MITCHELL       CLEAR     71  64  78 E6        30.03R
SIOUX FALLS    PTCLDY    67  60  78 CALM      30.04S
WINNER         FAIR      77  56  48 E8        30.03S
YANKTON        CLEAR     70  61  73 E5        30.05R
$$

MNZ071-072-080-081-089-090-097-098-010300-
SOUTHWEST MINNESOTA

CITY           SKY/WX    TMP DP  RH WIND       PRES   REMARKS
FAIRMONT       PTCLDY    72  57  60 CALM      30.04R
JACKSON        PTCLDY    70  61  73 CALM      30.06R
LUVERNE        PTCLDY    68  63  83 CALM      30.05R
MARSHALL       CLEAR     73  57  56 CALM      30.02S
MONTEVIDEO     CLEAR     72  57  60 CALM      30.03S
PIPESTONE      CLEAR     72  55  56 CALM      30.06R
REDWOOD FALLS  CLEAR     74  58  57 W3        30.02R
TRACY          CLEAR     68  61  76 CALM      30.04R
WINDOM         CLEAR     70  61  73 CALM      30.05R
WORTHINGTON    MOCLDY    70  61  73 N3        30.06S
$$

IAZ001>003-012>014-020>022-031-032-NEZ013-014-SDZ071-010300-
NORTHWEST IOWA

CITY           SKY/WX    TMP DP  RH WIND       PRES   REMARKS
CHEROKEE       CLEAR     65  61  87 CALM      30.04S
DENISON        MOCLDY    66  64  94 CALM      30.03S
ESTHERVILLE    MOCLDY    66  62  87 SW5       30.04R
LE MARS        CLEAR     68  63  83 CALM      30.05R
ORANGE CITY    PTCLDY    70  61  73 CALM      30.05S
SHELDON        CLEAR     68  61  77 SW5       30.04S
SIOUX CITY     PTCLDY    68  62  81 CALM      30.04R
SPENCER        PTCLDY    66  62  87 S6        30.04S
STORM LAKE     CLEAR     64  63  94 SW3       30.05S
$$

ABBREVIATIONS USED IN REMARKS
   TC - TEMPERATURE IN CELSIUS
  WCI - WIND CHILL INDEX
   HX - HEAT INDEX
  VSB - VISIBILITY



USA.gov is the U.S. government's official web portal to all federal, state and local government web resources and services.